This demonstration page uses our WeatherBlox Daily Observations layout. Learn more.

Left ArrowRight Arrow

53.62937, 11.41316

Hourly Observations for November 10, 2021

Temp ( °F °C ) Dew Point ( °F °C ) Humidity (%) Winds ( mph kmh ) Pressure ( in mb ) Visibility ( mi km ) Precip ( " mm )
12:20 am 00:20 Mostly Clear 43 6 39 4 87 87 S 5 7 30.27 1025 30 48 N/A
12:50 am 00:50 Mostly Clear 43 6 39 4 87 87 S 3 6 30.27 1025 30 48 N/A
1:20 am 01:20 Mostly Clear 43 6 39 4 87 87 S 3 6 30.27 1025 30 48 N/A
1:50 am 01:50 Mostly Clear 43 6 39 4 87 87 S 3 6 30.27 1025 30 48 N/A
2:20 am 02:20 Mostly Clear 43 6 39 4 87 87 S 3 6 30.27 1025 30 48 N/A
2:50 am 02:50 Mostly Clear 43 6 39 4 87 87 S 5 7 30.27 1025 30 48 N/A
3:20 am 03:20 Mostly Clear 43 6 39 4 87 87 VRB 5 7 30.27 1025 30 48 N/A
3:50 am 03:50 Mostly Clear 41 5 39 4 93 93 SSW 5 7 30.24 1024 30 48 N/A
4:20 am 04:20 Mostly Clear 41 5 37 3 87 87 S 5 7 30.24 1024 30 48 N/A
4:50 am 04:50 Mostly Clear 41 5 37 3 87 87 S 5 7 30.24 1024 30 48 N/A
5:20 am 05:20 Mostly Clear 41 5 37 3 87 87 VRB 6 9 30.24 1024 30 48 N/A
5:50 am 05:50 Mostly Clear 41 5 37 3 87 87 S 3 6 30.24 1024 30 48 N/A
6:20 am 06:20 Mostly Clear 41 5 37 3 87 87 S 7 11 30.24 1024 7 11 N/A
6:50 am 06:50 Mostly Clear 41 5 37 3 87 87 S 5 7 30.21 1023 7 11 N/A
7:20 am 07:20 Mostly Clear 39 4 37 3 93 93 VRB 3 6 30.21 1023 7 11 N/A
7:50 am 07:50 Mostly Sunny 41 5 37 3 87 87 SSW 3 6 30.24 1024 7 11 N/A
8:20 am 08:20 Mostly Sunny 39 4 37 3 93 93 S 7 11 30.24 1024 7 11 N/A
8:50 am 08:50 Mostly Sunny 41 5 37 3 87 87 S 5 7 30.24 1024 7 11 N/A
9:20 am 09:20 Mostly Sunny 43 6 37 3 81 81 VRB 1 2 30.24 1024 7 11 N/A
9:50 am 09:50 Mostly Sunny 45 7 39 4 81 81 VRB 2 4 30.21 1023 7 11 N/A
10:20 am 10:20 Mostly Sunny 46 8 39 4 76 76 VRB 3 6 30.21 1023 7 11 N/A
10:50 am 10:50 Mostly Sunny 46 8 39 4 76 76 VRB 2 4 30.24 1024 7 11 N/A
11:20 am 11:20 Partly Cloudy 48 9 41 5 76 76 S 6 9 30.24 1024 30 48 N/A
11:50 am 11:50 Partly Cloudy 48 9 41 5 76 76 S 5 7 30.21 1023 30 48 N/A
12:20 pm 12:20 Partly Cloudy 50 10 43 6 76 76 S 5 7 30.21 1023 30 48 N/A
12:50 pm 12:50 Cloudy 50 10 43 6 76 76 VRB 5 7 30.21 1023 30 48 N/A
1:20 pm 13:20 Cloudy 50 10 43 6 76 76 VRB 3 6 30.21 1023 30 48 N/A
1:50 pm 13:50 Mostly Cloudy 50 10 45 7 82 82 S 3 6 30.21 1023 30 48 N/A
2:20 pm 14:20 Cloudy 50 10 45 7 82 82 S 3 6 30.21 1023 30 48 N/A
2:50 pm 14:50 Cloudy with Drizzle 48 9 46 8 94 94 VRB 2 4 30.21 1023 3 5 N/A
3:20 pm 15:20 Mostly Cloudy 48 9 46 8 94 94 VRB 2 4 30.21 1023 5 8 N/A
3:50 pm 15:50 Mostly Cloudy 48 9 46 8 94 94 VRB 2 4 30.21 1023 30 48 N/A
4:20 pm 16:20 Mostly Cloudy 48 9 46 8 94 94 VRB 2 4 30.21 1023 30 48 N/A
4:50 pm 16:50 Mostly Cloudy 48 9 46 8 94 94 VRB 2 4 30.21 1023 30 48 N/A
5:20 pm 17:20 Mostly Cloudy 48 9 46 8 94 94 VRB 2 4 30.21 1023 30 48 N/A
5:50 pm 17:50 Mostly Cloudy 48 9 46 8 94 94 VRB 1 2 30.21 1023 30 48 N/A
6:20 pm 18:20 Cloudy 48 9 46 8 94 94 VRB 2 4 30.21 1023 30 48 N/A
6:50 pm 18:50 Mostly Cloudy 50 10 46 8 88 88 VRB 2 4 30.21 1023 30 48 N/A
7:20 pm 19:20 Cloudy 48 9 46 8 94 94 WSW 3 6 30.21 1023 4 6 N/A
7:50 pm 19:50 Mostly Cloudy with Drizzle 48 9 46 8 94 94 VRB 2 4 30.21 1023 1 2 N/A
8:20 pm 20:20 Mostly Cloudy with Drizzle 48 9 48 9 100 100 VRB 2 4 30.21 1023 2 3 N/A
8:50 pm 20:50 Mostly Cloudy with Mist and Fog 48 9 48 9 100 100 VRB 2 4 30.21 1023 2 4 N/A
9:20 pm 21:20 Partly Cloudy 48 9 48 9 100 100 S 3 6 30.21 1023 2 3 N/A
9:50 pm 21:50 Partly Cloudy 48 9 48 9 100 100 SW 3 6 30.21 1023 4 6 N/A
10:20 pm 22:20 Mostly Cloudy 48 9 48 9 100 100 VRB 2 4 30.21 1023 3 5 N/A
10:50 pm 22:50 Mostly Cloudy 48 9 48 9 100 100 WSW 3 6 30.21 1023 2 4 N/A
11:20 pm 23:20 Mostly Cloudy 48 9 48 9 100 100 VRB 2 4 30.21 1023 3 5 N/A
11:50 pm 23:50 Mostly Cloudy 48 9 48 9 100 100 WSW 3 6 30.21 1023 3 5 N/A

Powered by AerisWeather